Showing default

KUIPER-00014, 63730

Orbit data source: Space-Track

KUIPER-00014, 63730 is a payload satellite owned by Kuiper Systems (US) in LEO that was launched on Mon, 28 Apr 2025 UTC via an ATLAS V 551 launch vehicle from the Air Force Eastern Test Range (AFETR). Payload-class satellites include a variety of spacecraft equipped with specific instruments for various scientific and technological missions. These include communications satellites like Starlink; space stations such as the ISS; scientific satellites like the Hubble; Earth observation satellites from companies like Planet Labs, Umbra, and HawkEye 360; GPS; miniature CubeSats for education and research; and military/defense satellites.

Loading next visibility...
Identifier
63730, 2025-088G
Orbit
LEO
Country
Flag of USUS
Related business
Manufacturer
Kuiper Systems
Mission
Operational Commercial Communications
Bus & Motor
KUIPER, Unknown motor
Mass
~490 kg wet, ~490 kg dry
Launch date (UTC)
2025-04-28 (8 months ago)
Launch vehicle
ATLAS V 551
Launch site
Air Force Eastern Test Range (AFETR)
Object type
Payload
Rocket body
Debris
Shape & HBR
Box + 2 Pan, 3.4 m
Radar Cross Section
2.326 m², Large (>1 m²)

Expand to show TLE details & history
Last TLE update: 21 hours ago

TLE from 21 hours ago
0 KUIPER-00014
1 63730U 25088G   25348.75999879  .00001819  00000-0  26734-3 0  9991
2 63730  51.9020 124.6125 0009744 162.9322 197.1969 14.79984087 34790
Epoch: 2025-12-14T18:14Z
TLE epoch observation values (Epoch: 2025-12-14T18:14:23.895Z)
Latitude
-0.00009°
Longitude
127.34457°
Altitude
636.645 km
Speed
7.538 km/s
True Right ascension
08h 18m 26s
True Declination
0° 00' 00"
Sunlit
Object was in full shadow at epoch
Visualization orbit readout
Latitude
Unknown
Longitude
Unknown
Altitude
Unknown
Speed
Unknown
Apparent Right ascension
Unknown
Apparent Declination
Unknown
Sunlit
N/A
Visualization observer readout
Local Sidereal Time
13:23:51
Azimuth
Unknown
Elevation
Unknown
Doppler factor
Unknown
Orbital elements
Apogee altitude
636.654 km
Perigee altitude
622.997 km
Semi-major axis
7,007.962 km
Eccentricity
0.00097
Inclination
51.902°
RAAN
124.6125°
Arg. of periapsis
162.9322°
True anomaly
197.16393°
Mean anomaly
197.1969°
Eccentric anomaly
197.18041°
Mean motion
3.69961 °/min
Orbital period
97.31 mins
BSTAR
0.00026734
Loading maneuver chart data...
Computing Atmospheric mass density...
Loading historical data...
Loading historical data...
Loading historical data...
Loading historical data...
Loading historical data...
Loading historical data...
Loading historical data...

Documentation

Showing up to 5 results
|